Weather History for Malahat, BC

Change the Weather History Date:

Saturday, November 3, 2012

  Actual Average Record
Temperature  
Mean Temperature 49 °F -  
Max Temperature 51 °F - - ()
Min Temperature 47 °F - - ()
Degree Days  
Heating Degree Days 16    
Moisture  
Dew Point 48 °F    
Average Humidity 94    
Maximum Humidity 97    
Minimum Humidity 84    
Precipitation  
Precipitation 0.00 in - - ()
Sea Level Pressure  
Sea Level Pressure 29.97 in    
Wind  
Wind Speed - ()    
Max Wind Speed -    
Max Gust Speed -    
T = Trace of Precipitation, MM = Missing Value Source: Averaged Metar Reports

Daily Weather History Graph

Daily Weather History Graph

Search for Another Location

Airport:

Trip Planner

Search our weather history database for the weather conditions in past years. The results will help you decide how hot, cold, wet, or windy it might be!

Date:

Astronomy

Nov. 03, 2012 Rise Set
Actual Time 8:04 AM PDT 5:50 PM PDT
Civil Twilight 7:31 AM PDT 6:23 PM PDT
Nautical Twilight 6:54 AM PDT 7:00 PM PDT
Astronomical Twilight 6:17 AM PDT 7:37 PM PDT
Moon 9:28 PM PDT (11/3) 12:20 PM PDT (11/3)
Length of Visible Light 10h 52m
Length of Day
9h 45m
Waning Gibbous, 79% of the Moon is Illuminated
Nov 3
Waning Gibbous
Nov 6
Last Quarter
Nov 13
New
Nov 20
First Quarter
Nov 28
Full

Hourly Weather History & Observations

Time (PDT) Temp. Dew Point Humidity Pressure Visibility Wind Dir Wind Speed Gust Speed Precip Events Conditions
12:00 AM 47.3 °F 46.4 °F 97% 29.87 in - North - - N/A   Unknown
1:00 AM 47.3 °F 46.4 °F 97% 29.88 in - North - - N/A   Unknown
2:00 AM 47.3 °F 46.4 °F 97% 29.88 in - North - - N/A   Unknown
4:00 AM 47.8 °F 46.9 °F 97% 29.88 in - North - - N/A   Unknown
5:00 AM 49 °F 48 °F 93% 29.89 in - Calm Calm - -  
5:00 AM 48.6 °F 47.7 °F 97% 29.89 in - North - - N/A   Unknown
6:00 AM 48.7 °F 47.7 °F 96% 29.90 in - North - - N/A   Unknown
7:00 AM 47.7 °F 46.6 °F 96% 29.91 in - North - - N/A   Unknown
8:00 AM 48.0 °F 46.9 °F 96% 29.92 in - North - - N/A   Unknown
9:00 AM 48.4 °F 47.3 °F 96% 29.92 in - North - - N/A   Unknown
10:00 AM 49.1 °F 48.0 °F 96% 29.94 in - North - - N/A   Unknown
11:00 AM 50 °F 49 °F 94% 29.94 in - Calm Calm - -  
11:00 AM 50.2 °F 48.7 °F 95% 29.94 in - North - - N/A   Unknown
12:00 PM 50.7 °F 49.5 °F 95% 29.95 in - North - - N/A   Unknown
1:00 PM 50.5 °F 49.1 °F 95% 29.96 in - North - - N/A   Unknown
2:00 PM 49.1 °F 48.0 °F 96% 29.96 in - North - - N/A   Unknown
3:00 PM 49.6 °F 48.6 °F 96% 29.96 in - North - - N/A   Unknown
4:00 PM 49.8 °F 48.9 °F 97% 30.00 in - North - - N/A   Unknown
5:00 PM 50 °F 49 °F 96% 29.99 in - Calm Calm - -  
5:00 PM 50.2 °F 49.3 °F 97% 29.99 in - North - - N/A   Unknown
6:00 PM 51.4 °F 49.5 °F 93% 29.99 in - North - - N/A   Unknown
7:00 PM 51.1 °F 48.0 °F 89% 30.04 in - North - - N/A   Unknown
8:00 PM 50.5 °F 45.9 °F 84% 30.04 in - North - - N/A   Unknown
9:00 PM 49.5 °F 46.8 °F 90% 30.07 in - North - - N/A   Unknown
10:00 PM 49.3 °F 46.4 °F 90% 30.11 in - North - - N/A   Unknown
11:00 PM 49 °F 46 °F 87% 30.12 in - Calm Calm - -  
11:00 PM 49.3 °F 46.2 °F 89% 30.12 in - North - - N/A   Unknown